Location: Cisewo
(53.3833°N, 14.9000°E)
Time: 10:34:32
(UTC+00:00)

Cosmos 1763 Rocket - Pass Details

Date: 18 April 2021
Orbit: 733 x 779 km, 74.0° (Epoch: 15 May)

Event Time Altitude Azimuth Distance (km) Brightness Sun altitude
Rises 21:55:17 0° 328° (NNW) 3,182 8.0 -24.0°
Reaches altitude 10° 21:57:50 10° 319° (NW) 2,251 6.8 -24.1°
Maximum altitude 22:02:20 33° 257° (WSW) 1,224 4.5 -24.3°
Enters shadow 22:02:58 32° 242° (WSW) 1,252 4.4 -24.3°
